TimeCDT,TemperatureF,Dew PointF,Humidity,Sea Level PressureIn,VisibilityMPH,Wind Direction,Wind SpeedMPH,Gust SpeedMPH,PrecipitationIn,Events,Conditions,WindDirDegrees,DateUTC
12:53 AM,53.1,51.1,93,30.05,10.0,NW,6.9,-,N/A,,Mostly Cloudy,320,2013-05-10 05:53:00
1:02 AM,53.6,51.8,94,30.06,10.0,NW,6.9,-,N/A,,Mostly Cloudy,320,2013-05-10 06:02:00
1:10 AM,53.6,51.8,94,30.06,9.0,NW,6.9,-,N/A,,Overcast,320,2013-05-10 06:10:00
1:53 AM,54.0,52.0,93,30.06,10.0,NW,8.1,-,N/A,,Overcast,310,2013-05-10 06:53:00
2:24 AM,55.4,51.8,88,30.06,10.0,NNW,6.9,-,N/A,,Overcast,330,2013-05-10 07:24:00
2:53 AM,54.0,52.0,93,30.05,8.0,NW,8.1,-,N/A,,Overcast,320,2013-05-10 07:53:00
3:25 AM,53.6,51.8,94,30.06,8.0,NNW,10.4,-,N/A,,Overcast,330,2013-05-10 08:25:00
3:53 AM,54.0,51.1,90,30.05,8.0,NW,10.4,-,N/A,,Overcast,320,2013-05-10 08:53:00
4:53 AM,53.1,51.1,93,30.06,6.0,NNW,8.1,-,N/A,,Overcast,330,2013-05-10 09:53:00
5:03 AM,53.6,51.8,94,30.07,6.0,NNW,10.4,-,N/A,,Mostly Cloudy,330,2013-05-10 10:03:00
5:15 AM,53.6,51.8,94,30.07,6.0,NNW,11.5,-,N/A,,Overcast,330,2013-05-10 10:15:00
5:53 AM,52.0,50.0,93,30.05,7.0,North,12.7,-,N/A,,Scattered Clouds,350,2013-05-10 10:53:00
6:08 AM,51.8,50.0,94,30.06,6.0,NNW,10.4,-,N/A,,Partly Cloudy,340,2013-05-10 11:08:00
6:47 AM,51.8,50.0,94,30.08,4.0,North,12.7,-,N/A,,Mostly Cloudy,350,2013-05-10 11:47:00
6:53 AM,51.1,48.9,92,30.07,4.0,North,13.8,-,N/A,,Mostly Cloudy,350,2013-05-10 11:53:00
7:04 AM,51.8,48.2,88,30.09,4.0,North,12.7,-,N/A,,Scattered Clouds,350,2013-05-10 12:04:00
7:12 AM,51.8,48.2,88,30.09,3.0,North,11.5,-,N/A,,Mostly Cloudy,350,2013-05-10 12:12:00
7:53 AM,53.1,50.0,89,30.09,4.0,NNW,10.4,-,N/A,,Partly Cloudy,340,2013-05-10 12:53:00
8:16 AM,53.6,50.0,88,30.11,5.0,NNW,10.4,-,N/A,,Mostly Cloudy,340,2013-05-10 13:16:00
8:53 AM,55.0,51.1,86,30.10,7.0,North,11.5,-,N/A,,Mostly Cloudy,360,2013-05-10 13:53:00
9:53 AM,60.1,51.1,72,30.10,10.0,North,11.5,-,N/A,,Mostly Cloudy,360,2013-05-10 14:53:00
10:02 AM,59.0,50.0,72,30.11,10.0,North,17.3,23.0,N/A,,Scattered Clouds,350,2013-05-10 15:02:00
10:53 AM,62.1,48.9,62,30.11,10.0,North,10.4,20.7,N/A,,Scattered Clouds,360,2013-05-10 15:53:00
11:53 AM,66.0,48.0,52,30.12,10.0,NNE,13.8,-,N/A,,Partly Cloudy,20,2013-05-10 16:53:00
12:53 PM,68.0,48.0,49,30.12,10.0,North,13.8,18.4,N/A,,Partly Cloudy,10,2013-05-10 17:53:00
1:53 PM,70.0,48.0,46,30.10,10.0,North,9.2,16.1,N/A,,Partly Cloudy,350,2013-05-10 18:53:00
2:53 PM,70.0,48.0,46,30.07,10.0,North,12.7,18.4,N/A,,Scattered Clouds,10,2013-05-10 19:53:00
3:53 PM,71.1,46.0,41,30.05,10.0,NNE,12.7,20.7,N/A,,Partly Cloudy,30,2013-05-10 20:53:00
4:53 PM,71.1,46.0,41,30.04,10.0,NNW,5.8,-,N/A,,Scattered Clouds,330,2013-05-10 21:53:00
5:22 PM,64.4,50.0,59,30.06,10.0,WNW,12.7,-,N/A,,Overcast,290,2013-05-10 22:22:00
5:53 PM,69.1,48.9,49,30.04,10.0,West,6.9,-,N/A,,Partly Cloudy,280,2013-05-10 22:53:00
6:53 PM,70.0,46.9,44,30.03,10.0,Calm,Calm,-,N/A,,Clear,0,2013-05-10 23:53:00
7:53 PM,69.1,48.9,49,30.04,10.0,Calm,Calm,-,N/A,,Clear,0,2013-05-11 00:53:00
8:53 PM,61.0,51.1,70,30.06,10.0,SSW,5.8,-,N/A,,Clear,200,2013-05-11 01:53:00
9:53 PM,59.0,48.9,69,30.08,10.0,SSW,5.8,-,N/A,,Clear,210,2013-05-11 02:53:00
10:53 PM,55.0,48.9,80,30.09,10.0,South,4.6,-,N/A,,Clear,180,2013-05-11 03:53:00
11:53 PM,55.0,48.9,80,30.09,10.0,SSW,5.8,-,N/A,,Clear,210,2013-05-11 04:53:00